Location: Banksville Park
(38.5557°N, 75.1182°W)
Time: 15:33:51
(UTC+00:00)

Exosat Rocket - Pass Details

Date: 19 September 2020
Orbit: 760 x 2514 km, 72.3° (Epoch: 27 October)

Event Time Altitude Azimuth Distance (km) Brightness Sun altitude
Rises 00:52:43 0° 193° (SSW) 3,940 7.1 -21.8°
Reaches altitude 10° 00:55:38 10° 192° (SSW) 2,780 6.3 -22.3°
Maximum altitude 01:01:42 72° 109° (ESE) 881 3.5 -23.4°
Drops below altitude 10° 01:06:43 10° 25° (NNE) 2,314 5.9 -24.3°
Sets 01:08:57 0° 24° (NNE) 3,228 6.7 -24.7°
